When you browse on this site, cookies collect data to enhance your experience and personalize the content and advertising you see.
Visit our Privacy Policy to learn more. By continuing to use the site, you agree to this use of cookies and data.
  • en Belgique
  • Liste des pays
  • À 7 jours
  • Température de l'eau
  • Carte météo
  • Widgets météo
  • user-avatar
    Se connecter

    Météo par heure à Siempang

    Ce jour, 18 Novembre, Lundi

    Heure Température Précipitation Vent Pression Humidité
    00:00 +23°C° 0 mm 0 m/s 752 mmHg 86%
    01:00 +22°C° 0 mm 0 m/s 752 mmHg 88%
    02:00 +22°C° 0 mm 0 m/s 752 mmHg 89%
    03:00 +22°C° 0 mm 0 m/s 752 mmHg 90%
    04:00 +22°C° 0 mm 0 m/s 752 mmHg 92%
    05:00 +22°C° 0 mm 0 m/s 753 mmHg 90%
    06:00 +23°C° 0 mm 0 m/s 753 mmHg 89%
    07:00 +24°C° 0 mm 0 m/s 754 mmHg 87%
    08:00 +26°C° 0 mm 0 m/s 754 mmHg 78%
    09:00 +29°C° 0 mm 0 m/s 754 mmHg 68%
    10:00 +31°C° 0 mm 0 m/s 754 mmHg 59%
    11:00 +32°C° 0 mm 0 m/s 753 mmHg 56%
    12:00 +32°C° 0 mm 0 m/s 752 mmHg 53%
    13:00 +35°C° 0 mm 1 m/s 751 mmHg 49%
    14:00 +34°C° 0 mm 1 m/s 751 mmHg 52%
    15:00 +34°C° 0 mm 1 m/s 751 mmHg 56%
    16:00 +31°C° 0 mm 0 m/s 750 mmHg 59%
    17:00 +29°C° 0 mm 0 m/s 751 mmHg 68%
    18:00 +27°C° 0 mm 0 m/s 751 mmHg 77%
    19:00 +25°C° 0 mm 0 m/s 752 mmHg 86%
    20:00 +26°C° 0.1 mm 1 m/s 752 mmHg 88%
    21:00 +26°C° 0.1 mm 1 m/s 753 mmHg 90%
    22:00 +25°C° 0.1 mm 1 m/s 753 mmHg 91%
    23:00 +25°C° 0 mm 1 m/s 753 mmHg 92%

    Demain, 19 Novembre, Mardi

    Heure Température Précipitation Vent Pression Humidité
    00:00 +24°C° 0 mm 1 m/s 752 mmHg 93%
    01:00 +24°C° 0 mm 1 m/s 752 mmHg 94%
    02:00 +23°C° 0 mm 1 m/s 752 mmHg 95%
    03:00 +23°C° 0 mm 1 m/s 752 mmHg 96%
    04:00 +20°C° 0 mm 0 m/s 752 mmHg 97%
    05:00 +21°C° 0 mm 0 m/s 752 mmHg 96%
    06:00 +21°C° 0 mm 0 m/s 753 mmHg 94%
    07:00 +21°C° 0 mm 0 m/s 753 mmHg 93%
    08:00 +24°C° 0 mm 0 m/s 753 mmHg 81%
    09:00 +28°C° 0 mm 1 m/s 754 mmHg 69%
    10:00 +31°C° 0 mm 1 m/s 754 mmHg 58%
    11:00 +32°C° 0 mm 1 m/s 753 mmHg 53%
    12:00 +33°C° 0 mm 1 m/s 752 mmHg 49%
    13:00 +34°C° 0 mm 1 m/s 751 mmHg 45%
    14:00 +33°C° 0 mm 1 m/s 751 mmHg 49%
    15:00 +31°C° 0 mm 0 m/s 751 mmHg 52%
    16:00 +30°C° 0 mm 0 m/s 751 mmHg 56%
    17:00 +30°C° 0 mm 1 m/s 751 mmHg 61%
    18:00 +28°C° 0 mm 1 m/s 752 mmHg 67%
    19:00 +27°C° 0 mm 1 m/s 752 mmHg 72%
    20:00 +26°C° 0 mm 1 m/s 753 mmHg 74%
    21:00 +25°C° 0 mm 1 m/s 753 mmHg 77%
    22:00 +22°C° 0 mm 0 m/s 754 mmHg 79%
    23:00 +21°C° 0 mm 0 m/s 753 mmHg 81%

    Après-demain, 20 Novembre, Mercredi

    Heure Température Précipitation Vent Pression Humidité
    00:00 +20°C° 0 mm 0 m/s 753 mmHg 83%
    01:00 +20°C° 0 mm 0 m/s 753 mmHg 85%
    02:00 +19°C° 0 mm 0 m/s 753 mmHg 86%
    03:00 +19°C° 0 mm 0 m/s 753 mmHg 87%
    04:00 +19°C° 0 mm 0 m/s 753 mmHg 88%
    05:00 +19°C° 0 mm 0 m/s 753 mmHg 87%
    06:00 +19°C° 0 mm 0 m/s 753 mmHg 85%
    07:00 +20°C° 0 mm 0 m/s 754 mmHg 84%
    08:00 +22°C° 0 mm 0 m/s 754 mmHg 74%
    09:00 +25°C° 0 mm 0 m/s 754 mmHg 65%
    10:00 +28°C° 0 mm 0 m/s 754 mmHg 55%
    11:00 +29°C° 0 mm 0 m/s 753 mmHg 52%
    12:00 +30°C° 0 mm 0 m/s 752 mmHg 49%
    13:00 +33°C° 0 mm 1 m/s 752 mmHg 46%
    14:00 +32°C° 0 mm 1 m/s 751 mmHg 49%
    15:00 +32°C° 0 mm 1 m/s 751 mmHg 53%
    16:00 +31°C° 0 mm 1 m/s 750 mmHg 57%
    17:00 +27°C° 0 mm 0 m/s 751 mmHg 63%
    18:00 +25°C° 0 mm 0 m/s 751 mmHg 68%
    19:00 +23°C° 0 mm 0 m/s 752 mmHg 74%
    20:00 +23°C° 0 mm 0 m/s 753 mmHg 77%
    21:00 +22°C° 0 mm 0 m/s 753 mmHg 79%
    22:00 +21°C° 0 mm 0 m/s 753 mmHg 81%
    23:00 +21°C° 0 mm 0 m/s 753 mmHg 83%

    21 Novembre, Jeudi

    Heure Température Précipitation Vent Pression Humidité
    00:00 +20°C° 0 mm 0 m/s 753 mmHg 84%
    01:00 +22°C° 0 mm 1 m/s 753 mmHg 85%
    02:00 +19°C° 0 mm 0 m/s 753 mmHg 86%
    03:00 +19°C° 0 mm 0 m/s 752 mmHg 87%
    04:00 +19°C° 0 mm 0 m/s 752 mmHg 89%
    05:00 +19°C° 0 mm 0 m/s 753 mmHg 87%
    06:00 +19°C° 0 mm 0 m/s 753 mmHg 85%
    07:00 +20°C° 0 mm 0 m/s 753 mmHg 83%
    08:00 +23°C° 0 mm 0 m/s 753 mmHg 73%
    09:00 +28°C° 0 mm 1 m/s 754 mmHg 63%
    10:00 +31°C° 0 mm 1 m/s 754 mmHg 53%
    11:00 +32°C° 0 mm 1 m/s 753 mmHg 50%
    12:00 +33°C° 0 mm 1 m/s 752 mmHg 46%
    13:00 +34°C° 0 mm 1 m/s 751 mmHg 43%
    14:00 +33°C° 0 mm 1 m/s 751 mmHg 47%
    15:00 +31°C° 0 mm 0 m/s 751 mmHg 51%
    16:00 +30°C° 0 mm 0 m/s 750 mmHg 55%
    17:00 +29°C° 0 mm 0 m/s 751 mmHg 59%
    18:00 +29°C° 0 mm 1 m/s 751 mmHg 63%
    19:00 +27°C° 0 mm 1 m/s 751 mmHg 68%
    20:00 +26°C° 0 mm 1 m/s 752 mmHg 72%
    21:00 +23°C° 0 mm 0 m/s 752 mmHg 76%
    22:00 +22°C° 0 mm 0 m/s 752 mmHg 80%
    23:00 +22°C° 0 mm 0 m/s 752 mmHg 82%

    22 Novembre, Vendredi

    Heure Température Précipitation Vent Pression Humidité
    00:00 +22°C° 0 mm 0 m/s 752 mmHg 84%
    01:00 +21°C° 0 mm 0 m/s 752 mmHg 86%
    02:00 +21°C° 0 mm 0 m/s 752 mmHg 87%
    03:00 +21°C° 0 mm 0 m/s 751 mmHg 89%
    04:00 +20°C° 0 mm 0 m/s 751 mmHg 90%
    05:00 +21°C° 0 mm 0 m/s 752 mmHg 89%
    06:00 +21°C° 0 mm 0 m/s 752 mmHg 87%
    07:00 +22°C° 0 mm 0 m/s 753 mmHg 85%
    08:00 +24°C° 0 mm 0 m/s 753 mmHg 76%
    09:00 +27°C° 0 mm 0 m/s 753 mmHg 67%
    10:00 +32°C° 0 mm 1 m/s 753 mmHg 57%
    11:00 +30°C° 0 mm 0 m/s 752 mmHg 57%
    12:00 +30°C° 0 mm 0 m/s 751 mmHg 56%
    13:00 +30°C° 0 mm 0 m/s 751 mmHg 56%
    14:00 +30°C° 0 mm 0 m/s 750 mmHg 57%
    15:00 +30°C° 0 mm 0 m/s 750 mmHg 58%
    16:00 +30°C° 0 mm 0 m/s 750 mmHg 59%
    17:00 +28°C° 0.1 mm 0 m/s 750 mmHg 66%
    18:00 +27°C° 0.1 mm 0 m/s 751 mmHg 74%
    19:00 +25°C° 0.1 mm 0 m/s 751 mmHg 81%
    20:00 +25°C° 0.1 mm 0 m/s 752 mmHg 84%
    21:00 +24°C° 0.1 mm 0 m/s 752 mmHg 87%
    22:00 +26°C° 0.1 mm 1 m/s 752 mmHg 89%
    23:00 +25°C° 0 mm 1 m/s 752 mmHg 91%

    23 Novembre, Samedi

    Heure Température Précipitation Vent Pression Humidité
    00:00 +23°C° 0 mm 0 m/s 752 mmHg 92%
    01:00 +23°C° 0 mm 0 m/s 752 mmHg 93%
    02:00 +22°C° 0.1 mm 0 m/s 752 mmHg 94%
    03:00 +22°C° 0.1 mm 0 m/s 752 mmHg 95%
    04:00 +22°C° 0.1 mm 0 m/s 752 mmHg 96%
    05:00 +22°C° 0.1 mm 0 m/s 752 mmHg 95%
    06:00 +22°C° 0.1 mm 0 m/s 752 mmHg 94%
    07:00 +23°C° 0.1 mm 0 m/s 753 mmHg 94%
    08:00 +25°C° 0 mm 0 m/s 753 mmHg 82%
    09:00 +28°C° 0 mm 0 m/s 753 mmHg 70%
    10:00 +32°C° 0 mm 1 m/s 753 mmHg 58%
    11:00 +32°C° 0.1 mm 0 m/s 752 mmHg 55%
    12:00 +33°C° 0.1 mm 0 m/s 751 mmHg 51%
    13:00 +34°C° 0.1 mm 0 m/s 750 mmHg 48%
    14:00 +33°C° 0.1 mm 0 m/s 750 mmHg 52%
    15:00 +32°C° 0.1 mm 0 m/s 750 mmHg 56%
    16:00 +33°C° 0.1 mm 1 m/s 749 mmHg 61%
    17:00 +31°C° 0.1 mm 1 m/s 750 mmHg 69%
    18:00 +29°C° 0.1 mm 1 m/s 750 mmHg 77%
    19:00 +27°C° 0.1 mm 1 m/s 751 mmHg 86%
    20:00 +26°C° 0.1 mm 1 m/s 751 mmHg 88%
    21:00 +26°C° 0.1 mm 1 m/s 752 mmHg 90%
    22:00 +25°C° 0.1 mm 1 m/s 752 mmHg 92%
    23:00 +25°C° 0 mm 1 m/s 752 mmHg 93%
    Voir plus